Location: Arapaho Elementary School
(32.9607°N, 96.7625°W)
Time: 13:29:22
(UTC+00:00)

Cosmos 1500 Rocket - Pass Details

Date: 08 July 2022
Orbit: 602 x 631 km, 82.5° (Epoch: 07 August)

Event Time Altitude Azimuth Distance (km) Brightness Sun altitude
Exits shadow 07:40:57 12° 81° (E) 1,888 6.3 -32.2°
Drops below altitude 10° 07:42:17 10° 64° (ENE) 2,009 6.7 -32.1°
Sets 07:45:56 0° 33° (NNE) 2,925 8.1 -31.9°
